#timestamp,LO_Frequency,Hit,StdDev 
1588546815.2,286047002.2,N
1588546835.1,286047002.3,N
1588546836.0,286047002.3,N
1588546855.8,286047001.7,N
1588546875.7,286047000.6,N
1588546895.5,286046999.7,N
1588546915.3,286046999.9,N
1588546935.2,286047002.1,N
1588546955.0,286047000.7,N
1588546955.9,286047000.7,N
1588546975.8,286046998.7,N
1588546995.6,286046998.8,N
1588547015.4,286047000.0,N
1588547035.3,286047000.1,N
1588547055.1,286047001.2,N
1588547075.9,286047001.2,N
1588547095.7,286046996.6,N
1588547115.5,286046999.3,N
1588547135.4,286047000.9,N
1588547155.2,286047000.0,N
1588547175.0,286046999.9,N
1588547175.9,286046999.9,N
1588547195.8,286047001.0,N
1588547215.6,286047000.2,N
1588547235.5,286047002.5,N
1588547255.3,286046999.8,N
1588547275.1,286047001.0,N
1588547295.9,286046999.3,N
1588547315.7,286046999.6,N
1588547335.6,286046996.8,N
1588547355.4,286046996.8,N
1588547375.2,286046997.0,N
1588547395.1,286046997.5,N
1588547396.0,286046997.5,N
1588547415.8,286046999.5,N
1588547435.6,286047000.3,N
1588547455.5,286046997.0,N
1588547475.3,286046999.4,N
1588547495.2,286046998.4,N
1588547515.9,286046999.4,N
1588547535.7,286046996.6,N
1588547555.6,286046997.6,N
1588547575.4,286046995.1,Y
1588547595.3,286046997.2,P
1588547615.1,286046996.9,P
1588547635.8,286046999.1,N
1588547655.7,286046999.6,N
1588547675.5,286046998.0,N
1588547695.4,286046993.8,Y
1588547715.2,286046998.0,P
1588547735.1,286046996.7,P
1588547736.0,286046996.7,P
1588547755.8,286046997.0,Y
1588547775.6,286046999.7,P
1588547795.5,286046998.6,N
1588547815.3,286047001.2,N
1588547835.1,286046998.1,N
1588547855.9,286046998.6,N
1588547875.7,286046999.5,N
1588547895.6,286046999.4,N
1588547915.4,286047000.3,N
1588547935.2,286046998.5,N
1588547955.1,286047002.4,N
1588547956.0,286047002.4,N
1588547975.8,286047002.3,N
1588547995.7,286047000.3,N
1588548015.5,286047002.7,N
1588548035.3,286047000.4,N
1588548055.2,286047000.0,N
1588548075.0,286047000.4,N
1588548075.9,286047000.4,N
1588548095.7,286047001.6,N
1588548115.6,286047001.7,N
1588548135.4,286047002.4,N
1588548155.3,286047002.8,N
1588548175.1,286047002.8,N
1588548195.8,286047000.0,N
1588548215.7,286046998.7,N
1588548235.5,286047000.8,N
1588548255.4,286046997.0,N
1588548275.2,286046998.9,N
1588548295.0,286046997.1,N
1588548295.9,286046997.1,N
1588548315.8,286046997.0,N
1588548335.6,286046997.3,N
1588548355.4,286046997.9,N
1588548375.3,286046995.3,N
1588548395.1,286046998.7,N
1588548415.9,286047001.1,N
1588548435.7,286047000.3,N
1588548485.6,286047002.1,E
1588548495.5,286046999.9,N
1588548515.3,286046998.9,P
1588548535.2,286047001.2,N
1588548555.0,286046999.2,N
1588548555.9,286046999.2,N
1588548575.8,286046996.8,Y
1588548595.6,286047000.8,P
1588548615.4,286046999.3,N
1588548635.3,286046999.5,N
1588548655.1,286046999.0,N
1588548675.8,286047001.2,N
1588548695.7,286046998.7,N
1588548715.5,286047000.0,N
1588548735.4,286047000.6,N
1588548755.2,286046998.9,N
1588548775.0,286046998.8,N
1588548775.9,286046998.8,N
1588548795.8,286047000.2,N
1588548815.6,286046999.7,N
1588548835.5,286047002.8,Y
1588548855.3,286047000.9,P
1588548875.1,286046999.8,N
1588548895.9,286047002.7,P
1588548915.7,286046999.8,N
1588548935.5,286047002.6,N
1588548955.4,286047002.3,N
1588548975.2,286047003.5,N
1588548995.1,286047001.8,N
1588548996.0,286047001.8,N
1588549015.8,286047000.9,N
1588549035.6,286047001.2,N
1588549055.5,286046999.4,N
1588549075.3,286047000.8,N
1588549095.2,286047001.0,N
1588549115.9,286047002.1,N
1588549135.7,286047001.9,N
1588549155.6,286047000.3,N
1588549175.4,286047000.5,N
1588549195.2,286047002.0,N
1588549215.1,286047002.3,N
1588549216.0,286047002.3,N
1588549235.8,286047001.7,N
1588549255.7,286047000.9,N
1588549275.5,286047002.1,N
1588549295.3,286047002.0,N
1588549315.2,286047002.1,N
1588549335.0,286047002.7,N
1588549335.9,286047002.7,N
1588549355.8,286046999.8,N
1588549375.6,286047001.3,N
1588549395.4,286047002.6,N
1588549415.3,286047002.4,N
1588549435.1,286047000.0,N
1588549455.8,286047002.3,N
1588549475.7,286047002.7,N
1588549495.5,286047002.1,N
1588549515.4,286047000.9,N
1588549535.2,286047001.8,N
1588549555.0,286047003.2,Y
1588549555.9,286047003.2,P
1588549575.8,286047004.0,P
1588549595.6,286047002.6,N
1588549615.5,286047000.8,N
1588549635.3,286046998.1,N
1588549655.1,286046999.4,N
1588549675.9,286047001.0,N
1588549695.7,286046998.5,N
1588549715.5,286046998.1,N
1588549735.4,286047000.9,N
1588549755.2,286046998.5,N
1588549775.1,286047001.0,N
1588549776.0,286047001.0,N
1588549795.8,286047004.4,N
1588549815.6,286047002.1,N
1588549835.5,286047003.0,N
1588549855.3,286047003.8,N
1588549875.2,286047001.4,N
1588549895.9,286047001.7,N
1588549915.7,286047002.7,N
1588549935.6,286047000.3,N
1588549955.4,286047000.9,N
1588549975.3,286047000.6,N
1588549995.1,286047001.0,N
1588549996.0,286047001.0,N
1588550015.8,286046998.2,N
1588550035.7,286047001.9,N
1588550055.5,286047002.4,N
1588550075.3,286047003.2,N
1588550095.2,286047007.6,Y
1588550115.0,286047004.6,P
1588550115.9,286047004.6,N
1588550135.8,286047003.0,N
1588550155.6,286047002.7,N
1588550175.4,286047000.1,N
1588550195.3,286047004.3,N
1588550215.1,286047004.3,N
1588550235.9,286047003.5,N
1588550255.7,286047001.5,N
1588550275.5,286047001.7,N
1588550295.4,286047004.4,N
1588550315.2,286047004.4,N
1588550335.1,286047001.4,N
1588550336.0,286047001.4,N
1588550355.8,286047003.9,N
1588550375.6,286047002.0,N
1588550395.5,286047002.6,N
